Regional Weather Roundup
Issued by NWS

Home | Current Version | Previous Version | Text Only | Print | Product List | Glossary On
Versions: 1 2 3 4 5 6 7 8 9 10 11 12 13 14 15 16 17 18 19 20 21 22 23 24 25 26 27 28 29 30 31 32 33 34 35 36 37 38 39 40 41 42 43 44 45 46 47 48 49 50
000
ASUS44 KBMX 302010
RWRAL

ALABAMA REGIONAL WEATHER ROUNDUP
NATIONAL WEATHER SERVICE BIRMINGHAM AL
300 PM CDT SAT JUL 30 2016

NOTE: "FAIR" INDICATES FEW OR NO CLOUDS BELOW 12,000 FEET
WITH NO SIGNIFICANT WEATHER AND/OR OBSTRUCTIONS TO VISIBILITY.

THE REMARK "TC" DENOTES TEMPERATURE IN DEGREES CELSIUS.

ALZ001>011-014-016>018-020-302100-
NORTH ALABAMA

CITY           SKY/WX    TMP DP  RH WIND       PRES   REMARKS
MUSCLE SHOALS  CLOUDY    82  74  76 SE7       30.02F
HUNTSVILLE     LGT RAIN  76  69  79 SW7       30.01F
DECATUR        CLOUDY    75  71  87 SW3       30.02F
HALEYVILLE     FAIR      75  73  93 SE5       30.06F
GADSDEN        CLOUDY    78  71  79 NW3       30.06R
$$

ALZ012-013-022-023-030>036-040>044-302100-
WEST CENTRAL ALABAMA

CITY           SKY/WX    TMP DP  RH WIND       PRES   REMARKS
TUSCALOOSA     PTSUNNY   82  72  71 N25G32    30.01R
$$

ALZ015-024>027-033>036-040>044-302100-
CENTRAL ALABAMA

CITY           SKY/WX    TMP DP  RH WIND       PRES   REMARKS
BIRMINGHAM     CLOUDY    83  74  74 N9G18     30.08R
MONTGOMERY     MOSUNNY   94  70  45 SW5       29.99S HX 100
SHELBY CO ARPT TSTM      78  75  90 E7        30.04R FOG
MAXWELL AFB    SUNNY     94  70  45 W9        29.98F HX 100
GREENVILLE     FAIR      88  75  65 CALM      30.01F HX  97
$$

ALZ019-021-028-029-037-038-045>048-302100-
EAST CENTRAL ALABAMA

CITY           SKY/WX    TMP DP  RH WIND       PRES   REMARKS
ANNISTON       CLOUDY    74  68  81 S5        30.07R THUNDER
ALEXANDER CITY SUNNY     93  78  62 NW8G16    30.02S HX 108
AUBURN         LGT RAIN  85  73  67 NW5       30.03F HX  91
$$

ALZ051>064-302100-
SOUTHWEST ALABAMA

CITY           SKY/WX    TMP DP  RH WIND       PRES   REMARKS
MOBILE         MOSUNNY   92  70  48 VRB5      30.01F HX  97
BROOKLEY FIELD MOSUNNY   91  77  63 SE12      30.01F HX 104
EVERGREEN      PTSUNNY   91  74  57 CALM      30.00F HX 100
$$

ALZ049-050-065>069-302100-
SOUTHEAST ALABAMA

CITY           SKY/WX    TMP DP  RH WIND       PRES   REMARKS
DOTHAN         MOSUNNY   89  72  56 NW3       30.04F HX  96
OZARK          MOSUNNY   85  77  75 SW8       30.01F HX  95
TROY           PTSUNNY   93  74  53 S7        30.01F HX 103
EUFAULA        FAIR      95  72  47 S8        29.98F HX 103
$$



USA.gov is the U.S. government's official web portal to all federal, state and local government web resources and services.